Location: Eden
(21.4031°N, 77.9151°W)
Time: 17:54:35
(UTC+00:00)

Daily predictions for brighter satellites

Satellite Brightness Start Highest point End
(mag) Time Altitude Azimuth Time Altitude Azimuth Time Altitude Azimuth
Delta 2 Rocket 4.0 23:25:33 10° WSW 23:32:20 84° SSE 23:38:23 10° ENE
CZ-2D R/B 3.2 23:30:31 10° SSE 23:34:15 65° ENE 23:38:00 10° N
PSLV R/B 3.9 23:31:26 10° NNE 23:35:28 66° E 23:39:27 10° S
Okean O Rocket 2.9 23:32:16 10° S 23:36:25 46° W 23:40:35 10° NNW
FUSE 4.3 23:33:20 10° W 23:38:40 60° N 23:44:00 10° ENE
Cosmos 1689 Rocket 2.1 23:36:06 10° NNE 23:38:54 51° E 23:41:43 10° S
Cosmos 2360 Rocket 2.2 23:36:26 10° SSW 23:42:03 88° ESE 23:47:42 10° NNE
DELTA 2 R/B (1) 4.0 23:40:34 10° WSW 23:46:03 63° NW 23:51:33 10° NE
Cosmos 1933 Rocket 3.9 23:42:55 10° SSE 23:46:58 41° E 23:51:03 10° NNE
Hubble Space Telescope 0.9 23:48:28 10° WSW 23:52:33 64° SSE 23:56:07 13° ENE
Cosmos 2333 Rocket 2.7 23:47:46 10° S 23:52:57 39° ESE 23:58:10 10° NE
